パンスターズ彗星

P/2020 M1 ( PanSTARRS )

English version
Home page
Updated on August 15, 2020

---------------------------------------------------------------------

・ プロフィール

発見日 2020年6月17日
発見光度 21.3等
発見者 Pan-STARRS 1 telescope (Haleakala)

・ 軌道要素

Epoch 2019 Dec. 23.0 TT = JDT 2458840.5
T 2019 Dec. 21.00957 TT                                 Rudenko
q   2.6606849            (2000.0)            P               Q
n   0.08600626     Peri.   67.81951     -0.85281492     +0.51432701
a   5.0829519      Node   142.96100     -0.51712656     -0.80764808
e   0.4765473      Incl.    8.63259     -0.07271068     -0.28839609
P  11.5
From 46 observations 2020 May 24-July 18, mean residual 0".2.

・ 光度変化

        m1 = 14.5 + 5 logΔ + 10.0 log r

---------------------------------------------------------------------

軌道要素はM.P.E.C. 2020-P19に掲載されたものです。
光度グラフはComet for Windowsで作成したものです。

---------------------------------------------------------------------

Copyright(C) Seiichi Yoshida (comet@aerith.net). All rights reserved.